Weather History for KMGG - November, 2012

Change the Weather History Date:

Monday, November 5, 2012

  Actual Average (KSTC) Record (KSTC)
Temperature  
Mean Temperature 36 °F 36 °F  
Max Temperature 40 °F 46 °F 72 °F (1975)
Min Temperature 32 °F 28 °F -6 °F (1951)
Degree Days  
Heating Degree Days 29 28  
Month to date heating degree days 136  
Since 1 July heating degree days 1021  
Cooling Degree Days 0 0  
Month to date cooling degree days 0  
Year to date cooling degree days 465  
Moisture  
Dew Point 35 °F    
Average Humidity 96    
Maximum Humidity 99    
Minimum Humidity 92    
Precipitation  
Precipitation 0.00 in 0.05 in 0.93 in (1922)
Month to date precipitation 0.25  
Year to date precipitation 25.78  
Snow  
Snow 0.00 in 0.20 in 2.90 in (1991)
Month to date snowfall 0.8  
Since 1 July snowfall 1.6  
Since 1 September snowfall 1.6  
Snow Depth -    
Sea Level Pressure  
Sea Level Pressure 30.12 in    
Wind  
Wind Speed 5 mph (ESE)    
Max Wind Speed 9 mph    
Max Gust Speed -    
Visibility 6 miles    
Events      
T = Trace of Precipitation, MM = Missing Value Source: NWS Daily Summary

Daily Weather History Graph

Daily Weather History Graph

Search for Another Location

Airport or City:

Trip Planner

Search our weather history database for the weather conditions in past years. The results will help you decide how hot, cold, wet, or windy it might be!

Date:

Astronomy

Nov. 05, 2012 Rise Set
Actual Time 7:01 AM CST 4:57 PM CST
Civil Twilight 6:30 AM CST 5:28 PM CST
Nautical Twilight 5:54 AM CST 6:03 PM CST
Astronomical Twilight 5:20 AM CST 6:37 PM CST
Moon 10:36 PM CST (11/5) 12:21 PM CST (11/5)
Length of Visible Light 10h 58m
Length of Day
9h 56m
Waning Gibbous, 62% of the Moon is Illuminated
Nov 5
Waning Gibbous
Nov 6
Last Quarter
Nov 13
New
Nov 20
First Quarter
Nov 28
Full

Hourly Weather History & Observations

Time (CST) Temp. Windchill Dew Point Humidity Pressure Visibility Wind Dir Wind Speed Gust Speed Precip Events Conditions
12:15 AM 36.9 °F 33.1 °F 35.8 °F 96% 30.16 in 7.0 mi ENE 4.6 mph - N/A   Overcast
12:34 AM 36.9 °F 33.1 °F 35.6 °F 95% 30.16 in 7.0 mi NE 4.6 mph - N/A   Overcast
12:54 AM 36.7 °F 31.2 °F 35.2 °F 95% 30.17 in 7.0 mi ENE 6.9 mph - N/A   Overcast
1:14 AM 36.5 °F 31.8 °F 34.9 °F 94% 30.17 in 10.0 mi ENE 5.8 mph - N/A   Overcast
1:35 AM 36.5 °F 31.8 °F 34.7 °F 93% 30.17 in 10.0 mi NE 5.8 mph - N/A   Overcast
1:55 AM 35.6 °F 29.9 °F 33.8 °F 93% 30.17 in 10.0 mi ENE 6.9 mph - N/A   Mostly Cloudy
2:14 AM 35.6 °F 29.2 °F 33.4 °F 92% 30.17 in 10.0 mi ENE 8.1 mph - N/A   Scattered Clouds
2:35 AM 34.9 °F 28.3 °F 32.9 °F 92% 30.17 in 10.0 mi ENE 8.1 mph - N/A   Mostly Cloudy
2:54 AM 34.7 °F 28.1 °F 32.5 °F 92% 30.17 in 10.0 mi NE 8.1 mph - N/A   Mostly Cloudy
3:14 AM 34.3 °F 29.2 °F 32.4 °F 92% 30.17 in 10.0 mi ENE 5.8 mph - N/A   Mostly Cloudy
3:35 AM 34.3 °F 27.7 °F 32.4 °F 92% 30.17 in 10.0 mi ENE 8.1 mph - N/A   Overcast
3:54 AM 34.2 °F 29.0 °F 32.4 °F 93% 30.17 in 10.0 mi NE 5.8 mph - N/A   Overcast
4:14 AM 34.0 °F 29.8 °F 32.0 °F 92% 30.17 in 10.0 mi NE 4.6 mph - N/A   Overcast
4:34 AM 33.8 °F 28.6 °F 32.0 °F 93% 30.18 in 7.0 mi NE 5.8 mph - N/A   Overcast
4:54 AM 33.4 °F 28.1 °F 32.0 °F 94% 30.18 in 7.0 mi ENE 5.8 mph - N/A   Overcast
5:14 AM 33.3 °F 27.9 °F 32.0 °F 95% 30.18 in 10.0 mi NE 5.8 mph - N/A   Overcast
5:34 AM 33.1 °F 27.7 °F 32.0 °F 96% 30.18 in 10.0 mi NE 5.8 mph - N/A   Overcast
5:54 AM 33.1 °F 28.7 °F 32.0 °F 96% 30.18 in 10.0 mi ENE 4.6 mph - N/A   Overcast
6:14 AM 33.1 °F 28.7 °F 32.0 °F 96% 30.18 in 7.0 mi ENE 4.6 mph - N/A   Overcast
6:35 AM 33.3 °F 28.9 °F 32.2 °F 96% 30.19 in 7.0 mi NE 4.6 mph - N/A   Overcast
6:54 AM 33.3 °F 30.2 °F 32.0 °F 95% 30.19 in 10.0 mi NE 3.5 mph - N/A   Overcast
7:14 AM 33.1 °F 26.9 °F 32.0 °F 96% 30.19 in 7.0 mi ENE 6.9 mph - N/A   Overcast
7:34 AM 33.1 °F 27.7 °F 32.0 °F 96% 30.19 in 7.0 mi ENE 5.8 mph - N/A   Overcast
7:55 AM 32.9 °F 26.7 °F 32.2 °F 97% 30.19 in 4.0 mi ENE 6.9 mph - N/A   Overcast
8:14 AM 32.9 °F 27.5 °F 32.4 °F 98% 30.19 in 2.5 mi ENE 5.8 mph - N/A   Overcast
8:34 AM 32.9 °F 26.7 °F 32.4 °F 98% 30.19 in 3.0 mi ENE 6.9 mph - N/A   Overcast
8:55 AM 33.1 °F 27.7 °F 32.9 °F 99% 30.19 in 4.0 mi East 5.8 mph - N/A   Overcast
9:14 AM 33.1 °F 26.9 °F 32.9 °F 99% 30.19 in 4.0 mi ENE 6.9 mph - N/A   Overcast
9:34 AM 33.3 °F 27.1 °F 32.9 °F 99% 30.19 in 4.0 mi East 6.9 mph - N/A   Overcast
9:55 AM 33.6 °F 28.4 °F 33.3 °F 99% 30.19 in 4.0 mi East 5.8 mph - N/A   Overcast
10:14 AM 33.8 °F 28.6 °F 33.4 °F 99% 30.20 in 4.0 mi East 5.8 mph - N/A   Overcast
10:34 AM 34.2 °F 30.0 °F 33.8 °F 99% 30.20 in 4.0 mi East 4.6 mph - N/A   Overcast
10:54 AM 34.7 °F 30.6 °F 34.2 °F 98% 30.19 in 2.5 mi East 4.6 mph - N/A   Light Drizzle
11:14 AM 34.9 °F 30.8 °F 34.5 °F 99% 30.19 in 2.5 mi East 4.6 mph - N/A   Overcast
11:34 AM 35.2 °F - 34.9 °F 99% 30.18 in 3.0 mi Calm Calm - N/A   Overcast
11:55 AM 36.0 °F 32.1 °F 35.6 °F 99% 30.17 in 3.0 mi East 4.6 mph - N/A   Overcast
12:14 PM 36.1 °F 32.3 °F 35.6 °F 98% 30.17 in 4.0 mi East 4.6 mph - N/A   Overcast
12:34 PM 36.5 °F 32.7 °F 35.6 °F 97% 30.16 in 5.0 mi ESE 4.6 mph - N/A   Overcast
12:55 PM 36.9 °F 34.3 °F 36.0 °F 97% 30.15 in 5.0 mi ESE 3.5 mph - N/A   Overcast
1:15 PM 37.0 °F 34.5 °F 36.0 °F 96% 30.14 in 7.0 mi ESE 3.5 mph - N/A   Mostly Cloudy
1:34 PM 37.4 °F - 36.0 °F 95% 30.14 in 7.0 mi Calm Calm - N/A   Overcast
1:54 PM 37.8 °F - 36.3 °F 95% 30.14 in 7.0 mi Calm Calm - N/A   Overcast
2:14 PM 37.8 °F 35.3 °F 36.0 °F 93% 30.13 in 7.0 mi SE 3.5 mph - N/A   Overcast
2:34 PM 37.9 °F 34.4 °F 36.1 °F 93% 30.11 in 7.0 mi ESE 4.6 mph - N/A   Overcast
2:54 PM 38.3 °F - 36.5 °F 93% 30.10 in 7.0 mi Calm Calm - N/A   Overcast
3:14 PM 38.7 °F - 36.7 °F 93% 30.10 in 7.0 mi Calm Calm - N/A   Overcast
3:34 PM 39.0 °F 36.8 °F 37.2 °F 93% 30.10 in 5.0 mi SE 3.5 mph - N/A   Overcast
3:54 PM 39.2 °F 35.9 °F 37.4 °F 93% 30.10 in 4.0 mi SSE 4.6 mph - N/A   Overcast
4:14 PM 39.2 °F 35.9 °F 37.9 °F 95% 30.08 in 4.0 mi SE 4.6 mph - N/A   Overcast
4:35 PM 39.4 °F 34.5 °F 38.3 °F 96% 30.08 in 3.0 mi SSE 6.9 mph - N/A   Overcast
4:54 PM 39.2 °F 35.0 °F 38.3 °F 97% 30.07 in 3.0 mi SSE 5.8 mph - N/A   Overcast
5:14 PM 39.2 °F 35.0 °F 38.5 °F 97% 30.07 in 2.0 mi SSE 5.8 mph - N/A   Overcast
5:35 PM 39.4 °F 35.2 °F 38.8 °F 98% 30.06 in 2.0 mi SSE 5.8 mph - N/A   Overcast
5:54 PM 39.6 °F 35.4 °F 39.2 °F 99% 30.06 in 2.5 mi SSE 5.8 mph - N/A   Overcast
6:14 PM 39.7 °F 35.6 °F 39.4 °F 99% 30.06 in 2.5 mi SSE 5.8 mph - N/A   Overcast
6:35 PM 40.1 °F 35.3 °F 39.6 °F 98% 30.05 in 2.5 mi South 6.9 mph - N/A   Overcast
6:54 PM 40.3 °F 36.3 °F 39.6 °F 97% 30.05 in 3.0 mi South 5.8 mph - N/A   Overcast
7:14 PM 40.5 °F 35.8 °F 39.6 °F 97% 30.04 in 2.5 mi South 6.9 mph - N/A   Overcast
7:35 PM 40.3 °F 35.5 °F 39.7 °F 98% 30.03 in 1.5 mi South 6.9 mph - N/A   Drizzle
7:54 PM 40.1 °F - 39.7 °F 99% 30.02 in 1.5 mi Calm Calm - N/A   Light Drizzle
8:15 PM 40.1 °F 34.1 °F 39.6 °F 98% 30.01 in 2.5 mi SW 9.2 mph - N/A   Overcast
8:34 PM 39.6 °F 34.7 °F 39.2 °F 99% 30.00 in 2.0 mi SSW 6.9 mph - N/A   Drizzle
8:54 PM 39.2 °F 35.0 °F 38.8 °F 99% 30.00 in 2.0 mi SW 5.8 mph - N/A   Light Drizzle
9:15 PM 38.3 °F 32.5 °F 37.9 °F 99% 30.00 in 2.5 mi SSW 8.1 mph - N/A   Overcast
9:34 PM 38.3 °F 33.2 °F 37.8 °F 98% 29.99 in 4.0 mi SSW 6.9 mph - N/A   Overcast
9:54 PM 37.9 °F 32.7 °F 37.4 °F 98% 29.97 in 7.0 mi South 6.9 mph - N/A   Overcast
10:15 PM 37.9 °F 33.5 °F 37.4 °F 98% 29.95 in 7.0 mi South 5.8 mph - N/A   Overcast
10:34 PM 38.3 °F 33.9 °F 37.6 °F 97% 29.95 in 7.0 mi South 5.8 mph - N/A   Overcast
10:54 PM 38.3 °F 34.8 °F 37.6 °F 97% 29.94 in 7.0 mi SSW 4.6 mph - N/A   Overcast
11:14 PM 38.3 °F 34.8 °F 37.6 °F 97% 29.93 in 7.0 mi SSW 4.6 mph - N/A   Overcast
11:34 PM 38.5 °F 35.0 °F 37.8 °F 97% 29.93 in 7.0 mi SSW 4.6 mph - N/A   Overcast
11:55 PM 38.5 °F 34.1 °F 37.6 °F 97% 29.92 in 5.0 mi SSW 5.8 mph - N/A   Overcast